Weather History for Tucumcari, NM

Change the Weather History Date:

Wednesday, January 4, 2012

  Actual Average Record
Temperature  
Mean Temperature 46 °F -  
Max Temperature 57 °F 49 °F 79 °F (1927)
Min Temperature 34 °F 21 °F -10 °F (1959)
Degree Days  
Heating Degree Days 20    
Moisture  
Dew Point 23 °F    
Average Humidity 47    
Maximum Humidity 64    
Minimum Humidity 20    
Precipitation  
Precipitation 0.00 in - - ()
Sea Level Pressure  
Sea Level Pressure 30.37 in    
Wind  
Wind Speed 7 mph (WNW)    
Max Wind Speed 13 mph    
Max Gust Speed -    
Visibility 10 miles    
Events      
Averages and records for this station are not official NWS values.
T = Trace of Precipitation, MM = Missing Value Source: NWS Daily Summary

Daily Weather History Graph

Daily Weather History Graph

Search for Another Location

Airport:

Trip Planner

Search our weather history database for the weather conditions in past years. The results will help you decide how hot, cold, wet, or windy it might be!

Date:

Astronomy

Jan. 04, 2012 Rise Set
Actual Time 7:03 AM MST 4:55 PM MST
Civil Twilight 6:35 AM MST 5:23 PM MST
Nautical Twilight 6:03 AM MST 5:54 PM MST
Astronomical Twilight 5:32 AM MST 6:25 PM MST
Moon 1:18 PM MST (1/4) 2:55 AM MST (1/4)
Length of Visible Light 10h 48m
Length of Day
9h 52m
Waxing Gibbous, 81% of the Moon is Illuminated
Jan 4
Waxing Gibbous
Jan 9
Full
Jan 16
Last Quarter
Jan 23
New
Jan 30
First Quarter

Hourly Weather History & Observations

Time (MST) Temp. Windchill Dew Point Humidity Pressure Visibility Wind Dir Wind Speed Gust Speed Precip Events Conditions
12:53 AM 39.2 °F 34.2 °F 24.8 °F 56% 30.28 in 10.0 mi NE 6.9 mph - N/A   Clear
1:53 AM 39.0 °F 32.8 °F 24.1 °F 55% 30.25 in 10.0 mi NNE 9.2 mph - N/A   Clear
2:53 AM 42.1 °F 37.1 °F 24.1 °F 49% 30.27 in 10.0 mi North 8.1 mph - N/A   Clear
3:53 AM 39.2 °F 35.0 °F 24.8 °F 56% 30.37 in 10.0 mi WNW 5.8 mph - N/A   Clear
4:53 AM 37.0 °F 29.3 °F 25.0 °F 62% 30.36 in 10.0 mi NNW 11.5 mph - N/A   Clear
5:53 AM 37.0 °F 28.9 °F 24.1 °F 59% 30.42 in 10.0 mi NNW 12.7 mph - N/A   Clear
6:53 AM 36.0 °F 28.0 °F 24.1 °F 62% 30.42 in 10.0 mi NNW 11.5 mph - N/A   Clear
7:53 AM 39.0 °F 32.8 °F 24.1 °F 55% 30.44 in 10.0 mi NNW 9.2 mph - N/A   Clear
8:53 AM 42.8 °F - 26.6 °F 53% 30.49 in 10.0 mi Calm Calm - N/A   Clear
9:53 AM 48.0 °F - 27.0 °F 44% 30.48 in 10.0 mi Calm Calm - N/A   Clear
10:53 AM 51.1 °F - 25.0 °F 36% 30.45 in 10.0 mi East 4.6 mph - N/A   Clear
11:53 AM 54.0 °F - 21.9 °F 29% 30.42 in 10.0 mi Calm Calm - N/A   Clear
12:53 PM 55.9 °F - 19.9 °F 25% 30.38 in 10.0 mi Calm Calm - N/A   Clear
1:53 PM 57.2 °F - 19.4 °F 23% 30.40 in 10.0 mi WNW 3.5 mph - N/A   Clear
2:53 PM 57.9 °F - 17.1 °F 20% 30.35 in 10.0 mi SSW 4.6 mph - N/A   Clear
3:53 PM 57.0 °F - 18.0 °F 22% 30.33 in 10.0 mi SSW 6.9 mph - N/A   Clear
4:53 PM 50.0 °F - 19.0 °F 29% 30.35 in 10.0 mi SSW 6.9 mph - N/A   Clear
5:53 PM 44.1 °F 42.5 °F 21.9 °F 42% 30.37 in 10.0 mi WSW 3.5 mph - N/A   Clear
6:53 PM 41.0 °F 37.1 °F 23.0 °F 49% 30.38 in 10.0 mi WSW 5.8 mph - N/A   Clear
7:53 PM 37.0 °F 31.6 °F 24.1 °F 59% 30.37 in 10.0 mi SW 6.9 mph - N/A   Clear
8:53 PM 35.1 °F 27.9 °F 23.0 °F 61% 30.36 in 10.0 mi WSW 9.2 mph - N/A   Clear
9:53 PM 34.0 °F 26.6 °F 23.0 °F 64% 30.33 in 10.0 mi WSW 9.2 mph - N/A   Clear
10:53 PM 36.0 °F 30.3 °F 24.1 °F 62% 30.30 in 10.0 mi West 6.9 mph - N/A   Clear
11:53 PM 34.0 °F 28.0 °F 21.9 °F 61% 30.29 in 10.0 mi West 6.9 mph - N/A   Clear